Weather History for KOSU - March, 2013

Change the Weather History Date:

Thursday, March 28, 2013

  Actual Average Record
Temperature  
Mean Temperature 37 °F -  
Max Temperature 50 °F 54 °F 75 °F (2003)
Min Temperature 26 °F 35 °F 16 °F (2015)
Degree Days  
Heating Degree Days 28    
Moisture  
Dew Point 24 °F    
Average Humidity 59    
Maximum Humidity 82    
Minimum Humidity 38    
Precipitation  
Precipitation 0.00 in - - ()
Sea Level Pressure  
Sea Level Pressure 30.29 in    
Wind  
Wind Speed 11 mph (WNW)    
Max Wind Speed 17 mph    
Max Gust Speed 26 mph    
Visibility 10 miles    
Events      
Averages and records for this station are not official NWS values.
T = Trace of Precipitation, MM = Missing Value Source: NWS Daily Summary

Daily Weather History Graph

Daily Weather History Graph

Search for Another Location

Airport or City:

Trip Planner

Search our weather history database for the weather conditions in past years. The results will help you decide how hot, cold, wet, or windy it might be!

Date:

Astronomy

Mar. 28, 2013 Rise Set
Actual Time 7:22 AM EDT 7:52 PM EDT
Civil Twilight 6:55 AM EDT 8:20 PM EDT
Nautical Twilight 6:23 AM EDT 8:52 PM EDT
Astronomical Twilight 5:50 AM EDT 9:25 PM EDT
Moon 9:43 PM EDT (3/28) 7:49 AM EDT (3/28)
Length of Visible Light 13h 24m
Length of Day
12h 30m
Full, 98% of the Moon is Illuminated
Mar 28
Full
Apr 3
Last Quarter
Apr 10
New
Apr 18
First Quarter
Apr 25
Full

Hourly Weather History & Observations

Time (EDT) Temp. Windchill Dew Point Humidity Pressure Visibility Wind Dir Wind Speed Gust Speed Precip Events Conditions
12:53 AM 34.0 °F 23.8 °F 25.0 °F 70% 30.26 in 10.0 mi West 16.1 mph - N/A   Clear
1:53 AM 32.0 °F 23.0 °F 25.0 °F 75% 30.26 in 10.0 mi West 11.5 mph - N/A   Clear
2:53 AM 30.0 °F 21.7 °F 24.1 °F 79% 30.27 in 10.0 mi West 9.2 mph - N/A   Clear
3:53 AM 28.9 °F 20.4 °F 24.1 °F 82% 30.26 in 10.0 mi West 9.2 mph - N/A   Clear
4:53 AM 28.9 °F 20.4 °F 23.0 °F 78% 30.27 in 10.0 mi West 9.2 mph - N/A   Clear
5:53 AM 28.9 °F 19.8 °F 23.0 °F 78% 30.27 in 10.0 mi WNW 10.4 mph - N/A   Clear
6:53 AM 26.1 °F 17.6 °F 21.0 °F 81% 30.28 in 10.0 mi West 8.1 mph - N/A   Clear
7:53 AM 27.0 °F 19.5 °F 21.9 °F 81% 30.30 in 10.0 mi West 6.9 mph - N/A   Clear
8:53 AM 33.1 °F 26.1 °F 23.0 °F 66% 30.31 in 10.0 mi WNW 8.1 mph - N/A   Clear
9:53 AM 37.9 °F 30.5 °F 23.0 °F 55% 30.31 in 10.0 mi NW 11.5 mph - N/A   Clear
10:53 AM 41.0 °F 33.5 °F 21.9 °F 47% 30.32 in 10.0 mi NW 13.8 mph 20.7 mph N/A   Clear
11:53 AM 44.1 °F 37.4 °F 21.9 °F 42% 30.32 in 10.0 mi WNW 13.8 mph - N/A   Clear
12:53 PM 46.0 °F 39.0 °F 21.9 °F 39% 30.30 in 10.0 mi NNW 17.3 mph 26.5 mph N/A   Partly Cloudy
1:53 PM 46.0 °F 40.2 °F 24.1 °F 42% 30.30 in 10.0 mi WNW 12.7 mph 19.6 mph N/A   Partly Cloudy
2:53 PM 46.9 °F - 24.1 °F 41% 30.29 in 10.0 mi NNW 13.8 mph 20.7 mph N/A   Scattered Clouds
3:53 PM 48.9 °F - 24.1 °F 38% 30.27 in 10.0 mi NNW 9.2 mph 20.7 mph N/A   Partly Cloudy
4:53 PM 48.0 °F - 25.0 °F 41% 30.27 in 10.0 mi West 11.5 mph - N/A   Mostly Cloudy
5:53 PM 46.0 °F 41.4 °F 25.0 °F 44% 30.28 in 10.0 mi NNW 9.2 mph 18.4 mph N/A   Scattered Clouds
6:53 PM 46.0 °F 40.2 °F 24.1 °F 42% 30.29 in 10.0 mi WNW 12.7 mph - N/A   Clear
7:53 PM 41.0 °F 35.8 °F 24.1 °F 51% 30.29 in 10.0 mi West 8.1 mph - N/A   Clear
8:53 PM 37.0 °F 32.4 °F 25.0 °F 62% 30.31 in 10.0 mi West 5.8 mph - N/A   Clear
9:53 PM 37.9 °F 34.4 °F 25.0 °F 60% 30.31 in 10.0 mi West 4.6 mph - N/A   Clear
10:53 PM 36.0 °F 31.1 °F 25.0 °F 64% 30.32 in 10.0 mi West 5.8 mph - N/A   Clear
11:53 PM 35.1 °F 31.0 °F 25.0 °F 67% 30.32 in 10.0 mi West 4.6 mph - N/A   Clear